2020-085D

Last updated on Mon Dec 21 2020 00:02:03 GMT+0000 (Coordinated Universal Time)

1 46932U 20085D 20355.52813075 .00001786 00000-0 82775-4 0 9990 2 46932 97.3651 129.4977 0016129 182.7059 244.2123 15.21266023 4625
UTC large
Height (km)
Speed (km/s)
/
Latitude / Longitude
Inclination (degrees)
Orbital Period (minutes)
Azimuth
Elevation
Range (km)
Doppler Factor

Next 0 passes for location: London (51.5072 / 0.1276)

Sorry there are no passes over London.